User: anonymous   Login
Location: Unspecified
(0.0000°N, 0.0000°E)
Time: 08:26:58
(UTC+00:00)
Language:

Courier 1B Rocket - Orbit

View from above orbital plane
View from above orbital plane
View from above satellite
View from above satellite

Ground track
Ground track

The orbit data is extracted from the following two-line orbital elements,

1 00059U 60013B   18114.84636745  .00000221  00000-0  17277-3 0  9994
2 00059  28.2490 288.5001 0189246 180.8744 179.1483 13.52959882840778
Epoch (UTC): 24 April 2018 20:18:46
Eccentricity: 0.0189246
inclination: 28.2490°
perigee height: 920 km
apogee height: 1202 km
right ascension of ascending node: 288.5001°
argument of perigee: 180.8744°
revolutions per day: 13.52959882
mean anomaly at epoch: 179.1483°
orbit number at epoch: 84077

The dashed part of the orbit path shows where the satellite is in the earth's shadow,  

DLR